Orr, MN

5:24 PM CDT on July 22, 2017 (GMT -0500)
Orr Regional

Weather History for KORB - April, 2014

Change the Weather History Date:

Sunday, April 27, 2014

  Actual Average Record
Temperature  
Mean Temperature 36 °F -  
Max Temperature 42 °F 57 °F 77 °F (2007)
Min Temperature 30 °F 30 °F 19 °F (2017)
Degree Days  
Heating Degree Days 29    
Moisture  
Dew Point 16 °F    
Average Humidity 43    
Maximum Humidity 70    
Minimum Humidity 31    
Precipitation  
Precipitation 0.00 in - - ()
Sea Level Pressure  
Sea Level Pressure 30.00 in    
Wind  
Wind Speed 8 mph (ESE)    
Max Wind Speed 16 mph    
Max Gust Speed 26 mph    
Visibility 10 miles    
Events Snow    
Averages and records for this station are not official NWS values.
T = Trace of Precipitation, MM = Missing Value Source: NWS Daily Summary

Daily Weather History Graph

Daily Weather History Graph

Search for Another Location

Airport or City:

Trip Planner

Search our weather history database for the weather conditions in past years. The results will help you decide how hot, cold, wet, or windy it might be!

Date:

Astronomy

Apr. 27, 2014 Rise Set
Actual Time 5:59 AM CDT 8:19 PM CDT
Civil Twilight 5:25 AM CDT 8:53 PM CDT
Nautical Twilight 4:43 AM CDT 9:36 PM CDT
Astronomical Twilight 3:54 AM CDT 10:25 PM CDT
Moon 5:09 AM CDT (4/27) 6:47 PM CDT (4/27)
Length of Visible Light 15h 27m
Length of Day
14h 19m
Waning Crescent, 3% of the Moon is Illuminated
Apr 27
Waning Crescent
Apr 29
New
May 6
First Quarter
May 14
Full
May 21
Last Quarter

Hourly Weather History & Observations

Time (CDT) Temp. Windchill Dew Point Humidity Pressure Visibility Wind Dir Wind Speed Gust Speed Precip Events Conditions
12:13 AM 32.0 °F 26.4 °F 17.6 °F 55% 30.11 in 10.0 mi SE 5.8 mph - N/A   Clear
12:33 AM 32.0 °F 25.6 °F 17.6 °F 55% 30.10 in 10.0 mi ESE 6.9 mph - N/A   Clear
12:53 AM 32.0 °F 25.6 °F 17.6 °F 55% 30.09 in 10.0 mi ESE 6.9 mph - N/A   Clear
1:13 AM 32.0 °F 26.4 °F 17.6 °F 55% 30.07 in 10.0 mi ESE 5.8 mph - N/A   Clear
1:34 AM 33.8 °F 27.7 °F 17.6 °F 52% 30.07 in 10.0 mi ESE 6.9 mph - N/A   Clear
1:54 AM 33.8 °F 27.0 °F 17.6 °F 52% 30.07 in 10.0 mi ESE 8.1 mph - N/A   Clear
2:14 AM 32.0 °F 25.6 °F 15.8 °F 51% 30.06 in 10.0 mi ESE 6.9 mph - N/A   Clear
2:33 AM 32.0 °F 25.6 °F 15.8 °F 51% 30.05 in 10.0 mi East 6.9 mph - N/A   Clear
2:53 AM 30.2 °F 24.3 °F 15.8 °F 55% 30.04 in 10.0 mi East 5.8 mph - N/A   Clear
3:14 AM 30.2 °F 24.3 °F 15.8 °F 55% 30.03 in 10.0 mi East 5.8 mph - N/A   Clear
3:33 AM 30.2 °F 23.4 °F 15.8 °F 55% 30.01 in 10.0 mi East 6.9 mph - N/A   Clear
4:14 AM 30.2 °F 22.6 °F 12.2 °F 47% 30.00 in 10.0 mi East 8.1 mph - N/A   Clear
4:33 AM 30.2 °F 23.4 °F 10.4 °F 44% 30.01 in 10.0 mi ESE 6.9 mph - N/A   Clear
4:54 AM 30.2 °F 22.6 °F 10.4 °F 44% 30.01 in 10.0 mi ESE 8.1 mph - N/A   Clear
5:13 AM 30.2 °F 23.4 °F 10.4 °F 44% 30.00 in 10.0 mi ESE 6.9 mph - N/A   Clear
5:34 AM 30.2 °F 23.4 °F 10.4 °F 44% 30.01 in 10.0 mi ESE 6.9 mph - N/A   Clear
5:53 AM 30.2 °F 22.6 °F 10.4 °F 44% 30.00 in 10.0 mi East 8.1 mph - N/A   Clear
6:14 AM 30.2 °F 22.6 °F 10.4 °F 44% 30.02 in 10.0 mi East 8.1 mph - N/A   Clear
6:34 AM 30.2 °F 24.3 °F 10.4 °F 44% 30.03 in 10.0 mi East 5.8 mph - N/A   Clear
6:54 AM 30.2 °F 22.6 °F 10.4 °F 44% 30.03 in 10.0 mi East 8.1 mph - N/A   Clear
7:13 AM 30.2 °F 23.4 °F 10.4 °F 44% 30.04 in 10.0 mi East 6.9 mph - N/A   Clear
7:34 AM 32.0 °F 25.6 °F 12.2 °F 44% 30.04 in 10.0 mi ESE 6.9 mph - N/A   Clear
7:53 AM 32.0 °F 24.2 °F 12.2 °F 44% 30.04 in 10.0 mi ESE 9.2 mph - N/A   Clear
8:13 AM 33.8 °F 27.0 °F 12.2 °F 41% 30.05 in 10.0 mi ESE 8.1 mph - N/A   Clear
8:33 AM 33.8 °F 26.4 °F 12.2 °F 41% 30.04 in 10.0 mi ESE 9.2 mph - N/A   Scattered Clouds
8:53 AM 35.6 °F 28.0 °F 12.2 °F 38% 30.04 in 10.0 mi ESE 10.4 mph 20.7 mph N/A   Overcast
9:14 AM 35.6 °F 30.7 °F 14.0 °F 41% 30.03 in 10.0 mi ESE 5.8 mph - N/A   Overcast
9:34 AM 35.6 °F 29.9 °F 14.0 °F 41% 30.03 in 10.0 mi ESE 6.9 mph - N/A   Overcast
9:54 AM 35.6 °F 29.9 °F 15.8 °F 44% 30.02 in 10.0 mi East 6.9 mph - N/A   Overcast
10:13 AM 37.4 °F 31.4 °F 15.8 °F 41% 30.03 in 10.0 mi ESE 8.1 mph 19.6 mph N/A   Overcast
10:34 AM 37.4 °F 30.8 °F 17.6 °F 45% 30.03 in 10.0 mi ESE 9.2 mph 20.7 mph N/A   Overcast
11:34 AM 37.4 °F 31.4 °F 17.6 °F 45% 30.03 in 10.0 mi ESE 8.1 mph 23.0 mph N/A   Overcast
11:54 AM 39.2 °F 33.0 °F 17.6 °F 42% 30.02 in 10.0 mi ESE 9.2 mph 18.4 mph N/A   Overcast
12:13 PM 41.0 °F 34.7 °F 17.6 °F 39% 30.01 in 10.0 mi ESE 10.4 mph 18.4 mph N/A   Overcast
12:34 PM 41.0 °F 33.9 °F 17.6 °F 39% 30.00 in 10.0 mi ESE 12.7 mph 24.2 mph N/A   Overcast
12:54 PM 42.8 °F 35.4 °F 15.8 °F 34% 29.98 in 10.0 mi ESE 15.0 mph 25.3 mph N/A   Overcast
1:13 PM 42.8 °F 35.1 °F 15.8 °F 34% 29.97 in 10.0 mi ESE 16.1 mph 25.3 mph N/A   Overcast
1:33 PM 42.8 °F 35.4 °F 15.8 °F 34% 29.97 in 10.0 mi ESE 15.0 mph 26.5 mph N/A   Overcast
1:54 PM 42.8 °F 36.2 °F 15.8 °F 34% 29.97 in 10.0 mi ESE 12.7 mph 23.0 mph N/A   Overcast
2:13 PM 42.8 °F 35.8 °F 15.8 °F 34% 29.97 in 10.0 mi ESE 13.8 mph 23.0 mph N/A   Overcast
2:33 PM 42.8 °F 35.8 °F 17.6 °F 36% 29.99 in 10.0 mi ESE 13.8 mph 24.2 mph N/A   Overcast
3:14 PM 41.0 °F 33.9 °F 17.6 °F 39% 29.98 in 10.0 mi ESE 12.7 mph 25.3 mph N/A   Overcast
3:34 PM 42.8 °F 35.1 °F 17.6 °F 36% 29.98 in 10.0 mi ESE 16.1 mph 24.2 mph N/A   Overcast
3:53 PM 42.8 °F 35.8 °F 17.6 °F 36% 29.97 in 10.0 mi ESE 13.8 mph 24.2 mph N/A   Overcast
4:14 PM 41.0 °F 35.8 °F 15.8 °F 36% 29.95 in 10.0 mi ESE 8.1 mph 24.2 mph N/A   Overcast
4:33 PM 42.8 °F 36.6 °F 17.6 °F 36% 29.96 in 10.0 mi ESE 11.5 mph 23.0 mph N/A   Overcast
4:54 PM 42.8 °F 36.6 °F 17.6 °F 36% 29.95 in 10.0 mi ESE 11.5 mph 18.4 mph N/A   Overcast
5:14 PM 42.8 °F 36.2 °F 15.8 °F 34% 29.94 in 10.0 mi ESE 12.7 mph 24.2 mph N/A   Overcast
5:33 PM 42.8 °F 38.0 °F 15.8 °F 34% 29.94 in 10.0 mi East 8.1 mph 21.9 mph N/A   Overcast
5:54 PM 42.8 °F 38.0 °F 15.8 °F 34% 29.94 in 10.0 mi East 8.1 mph 17.3 mph N/A   Mostly Cloudy
6:13 PM 42.8 °F 36.2 °F 14.0 °F 31% 29.94 in 10.0 mi East 12.7 mph 21.9 mph N/A   Scattered Clouds
6:33 PM 42.8 °F 35.8 °F 14.0 °F 31% 29.94 in 10.0 mi ESE 13.8 mph 23.0 mph N/A   Scattered Clouds
6:53 PM 42.8 °F 37.5 °F 14.0 °F 31% 29.95 in 10.0 mi East 9.2 mph 21.9 mph N/A   Mostly Cloudy
7:14 PM 41.0 °F 34.3 °F 12.2 °F 31% 29.95 in 10.0 mi East 11.5 mph 21.9 mph N/A   Overcast
7:33 PM 41.0 °F 34.7 °F 12.2 °F 31% 29.96 in 10.0 mi East 10.4 mph 21.9 mph N/A   Overcast
7:54 PM 39.2 °F 34.2 °F 12.2 °F 33% 29.95 in 10.0 mi ESE 6.9 mph 21.9 mph N/A   Overcast
8:13 PM 39.2 °F 32.5 °F 12.2 °F 33% 29.95 in 10.0 mi East 10.4 mph 21.9 mph N/A   Overcast
8:33 PM 39.2 °F 33.6 °F 12.2 °F 33% 29.95 in 10.0 mi East 8.1 mph 18.4 mph N/A   Overcast
8:54 PM 39.2 °F 33.6 °F 14.0 °F 36% 29.96 in 10.0 mi ESE 8.1 mph 20.7 mph N/A   Overcast
9:13 PM 39.2 °F 32.5 °F 15.8 °F 39% 29.96 in 10.0 mi East 10.4 mph 24.2 mph N/A   Overcast
9:33 PM 39.2 °F 32.0 °F 17.6 °F 42% 29.97 in 10.0 mi ESE 11.5 mph 25.3 mph N/A   Overcast
9:53 PM 35.6 °F 28.0 °F 24.8 °F 65% 29.98 in 10.0 mi ESE 10.4 mph 25.3 mph N/A Snow Light Snow
10:13 PM 35.6 °F 28.0 °F 26.6 °F 70% 29.96 in 10.0 mi East 10.4 mph 18.4 mph N/A Snow Light Snow
10:33 PM 35.6 °F 28.6 °F 26.6 °F 70% 29.93 in 10.0 mi East 9.2 mph - N/A Snow Snow
10:54 PM 35.6 °F 28.0 °F 24.8 °F 65% 29.91 in 10.0 mi East 10.4 mph 19.6 mph N/A   Overcast
11:13 PM 37.4 °F 29.8 °F 24.8 °F 60% 29.90 in 10.0 mi East 11.5 mph 25.3 mph N/A   Overcast
11:34 PM 37.4 °F 28.5 °F 21.2 °F 52% 29.90 in 10.0 mi East 15.0 mph 25.3 mph N/A   Overcast
11:54 PM 39.2 °F 32.0 °F 21.2 °F 49% 29.91 in 10.0 mi ESE 11.5 mph 25.3 mph N/A   Overcast